Location: *
(45.9500°N, 9.0833°E)
Time: 22:54:33
(UTC+00:00)

Tiros 1 despin weight - Pass Details

Date: 22 June 2021
Orbit: 593 x 642 km, 48.2° (Epoch: 02 August)

Event Time Altitude Azimuth Distance (km) Brightness Sun altitude
Rises 06:12:37 0° 264° (W) 2,827 ? 24.5°
Reaches altitude 10° 06:14:54 10° 267° (W) 1,923 ? 24.9°
Maximum altitude 06:19:18 70° 352° (N) 633 ? 25.7°
Drops below altitude 10° 06:23:42 10° 76° (ENE) 1,927 ? 26.5°
Sets 06:26:00 0° 78° (ENE) 2,833 ? 26.9°
